User: anonymous
Location: Caltech
(34.1382°N, 118.1253°W)
Time: 17:32:50
(UTC-07:00)
Language:

Iridium 14 - Orbit

View from above orbital plane
View from above orbital plane
View from above satellite
View from above satellite

Ground track
Ground track

The orbit data is extracted from the following two-line orbital elements,

1 25777U 99032A   14292.50687289  .00000361  00000-0  12192-3 0  1220
2 25777 086.3936 270.0658 0001878 098.3357 019.1864 14.34216762815405
Epoch (UTC): 19 October 2014 12:09:53
Eccentricity: 0.0001878
inclination: 86.3936°
perigee height: 776 km
apogee height: 779 km
right ascension of ascending node: 270.0658°
argument of perigee: 98.3357°
revolutions per day: 14.34216762
mean anomaly at epoch: 19.1864°
orbit number at epoch: 81540

The dashed part of the orbit path shows where the satellite is in the earth's shadow,  

DLR